[[{"header":{"parameterUnit":"m.s-1","parameterCategory":2,"la1":30.2991,"la2":30.254,"lo1":-89.0895,"lo2":-89.0444,"dy":0.0017,"dx":0.0017,"nx":28,"ny":28,"refTime":"2024-07-17T21:00:00:Z","depth":"0","parameterNumber":2,"parameterNumberName":"U-component_of_CURRENTS"},"data":[0,0,0,0,0,0,0,0,0,0,0,0,0,0,0,0,0,0,0,0,0,0,0,0,0,0,0,0,0,0,0,0,0,0,0,0,0,0,0,0,0,0,0,0,0,0,0,0,0,0,0,0,0,0,0,0,0,0,0.411,0.4111,0,0.4196,0.4197,0.4198,0.4199,0.4198,0.4197,0.4197,0.4227,0.4228,0.423,0,0,0,0,0,0,0,0,0,0,0,0,0,0.3968,0.3971,0.411,0.4112,0.4113,0.4196,0.4197,0.4198,0.4199,0.4198,0.4197,0.4196,0.4226,0.4228,0.423,0,0,0,0,0,0,0,0,0,0,0,0,0,0.4038,0.3971,0.411,0.4125,0.4127,0.4196,0.4197,0.4198,0.42,0.4198,0.4197,0.4196,0.4226,0.4228,0.423,0.4273,0,0,0.4238,0.4239,0,0,0,0,0,0,0,0,0.4034,0.4043,0.4122,0.4124,0.4127,0.4187,0.4158,0.4221,0.42,0.417,0.4197,0.4195,0.4211,0.4214,0.4232,0.4274,0.4275,0.4238,0.424,0.4241,0.4241,0,0,0,0,0,0,0,0.4029,0.4039,0.4142,0.4123,0.4126,0.4135,0.4143,0.417,0.4194,0.4173,0.4173,0.4187,0.4211,0.4229,0.4232,0.4276,0.4238,0.424,0.4242,0.4243,0.4398,0.44,0,0,0,0,0,0,0.4023,0.4035,0.414,0.4145,0.4078,0.4138,0.4147,0.4168,0.4195,0.4199,0.4188,0.4186,0.4226,0.4229,0.4233,0.4322,0.4241,0.4243,0.4244,0.4395,0.4398,0.4401,0,0,0,0,0,0,0.402,0.4032,0.4136,0.4093,0.4107,0.4142,0.4165,0.417,0.4189,0.4208,0.421,0.4202,0.4225,0.423,0.4283,0.4321,0.4244,0.4246,0.4392,0.4396,0.44,0.4476,0,0,0,0,0,0,0.4016,0.4031,0.4047,0.4093,0.4109,0.42,0.4167,0.4173,0.42,0.4199,0.4221,0.4222,0.4224,0.428,0.4286,0.4323,0.4248,0.4389,0.4394,0.4399,0.447,0.4482,0.4492,0,0,0,0,0,0.401,0.4045,0.4047,0.406,0.4129,0.4202,0.4212,0.423,0.4202,0.4236,0.4248,0.4222,0.4315,0.4285,0.4291,0.433,0.4386,0.4392,0.4398,0.4465,0.448,0.4492,0,0,0,0,0,0,0.3992,0.405,0.4053,0.4102,0.4156,0.4203,0.4237,0.4236,0.4272,0.4269,0.426,0.4266,0.4329,0.4324,0.429,0.4391,0.4345,0.4352,0.4394,0.4407,0.4418,0.4481,0.425,0,0,0,0,0,0.3996,0.4037,0.4092,0.4134,0.4163,0.4196,0.4224,0.4243,0.4279,0.4292,0.4301,0.4321,0.4361,0.4377,0.4413,0.4467,0.455,0.4496,0.4507,0.4516,0.4574,0.4723,0.4754,0.4421,0.4421,0.4421,0,0,0.3996,0.4038,0.4057,0.4133,0.4172,0.4239,0.4211,0.4274,0.4323,0.4291,0.4354,0.4365,0.4387,0.4456,0.4482,0.4452,0.466,0.4524,0.4531,0.4585,0.4733,0.4766,0.4795,0.4425,0.4424,0.4423,0,0,0.4035,0.4063,0.4114,0.4172,0.4247,0.4276,0.4294,0.4351,0.4372,0.4431,0.443,0.4484,0.4507,0.4563,0.4582,0.4681,0.4718,0.4662,0.4764,0.4906,0.4936,0.4963,0.5135,0.5176,0.466,0.466,0.466,0,0.403,0.4113,0.4141,0.4219,0.4283,0.4293,0.4379,0.4407,0.447,0.4518,0.4461,0.4576,0.4575,0.4703,0.473,0.4711,0.4805,0.4702,0.4924,0.4952,0.4979,0.5148,0.5193,0.4665,0.4664,0.4664,0.4663,0,0.4118,0.419,0.4234,0.4332,0.44,0.4482,0.4536,0.4587,0.4587,0.4622,0.4731,0.4746,0.4829,0.4813,0.4795,0.4978,0.4992,0.4924,0.4892,0.5017,0.5187,0.5233,0.4671,0.4669,0.4668,0.4667,0,0,0.4102,0.4261,0.4279,0.4369,0.4479,0.4556,0.464,0.4752,0.4833,0.4854,0.4981,0.5024,0.5039,0.507,0.506,0.5158,0.5405,0.5121,0.5126,0.5298,0.5766,0.5681,0.5723,0.5368,0.5375,0.5381,0.5819,0,0.4168,0.434,0.4396,0.4566,0.4676,0.4734,0.4829,0.4926,0.4968,0.5083,0.5118,0.5221,0.5132,0.5184,0.5277,0.5375,0.5526,0.5296,0.5616,0.5628,0.5541,0.5772,0.5468,0.5823,0.5864,0.5871,0.5877,0,0.4253,0.4367,0.4547,0.4745,0.4796,0.4881,0.5068,0.5153,0.529,0.5331,0.5429,0.5452,0.5627,0.5502,0.5796,0.5652,0.5752,0.5806,0.5822,0.5758,0.5628,0.57,0.5904,0.5714,0.5947,0.5941,0.5936,0,0.4303,0.4485,0.464,0.471,0.491,0.5,0.5092,0.5236,0.5337,0.5506,0.5596,0.5762,0.5878,0.6014,0.6107,0.5989,0.6424,0.6271,0.6316,0.6312,0.613,0.6095,0.6193,0.6542,0.6541,0.654,0.6538,0,0.4407,0.455,0.4673,0.4783,0.4972,0.5076,0.5262,0.5369,0.5523,0.5664,0.5738,0.5886,0.601,0.6217,0.6273,0.6472,0.6585,0.6437,0.6447,0.6146,0.6109,0.5989,0.5892,0.6556,0.6552,0.6549,0.6546,0,0.4532,0.4595,0.4798,0.4973,0.5021,0.5174,0.5354,0.5462,0.5611,0.5799,0.5869,0.6082,0.634,0.6475,0.6745,0.6705,0.6694,0.6918,0.6571,0.653,0.6284,0.6202,0.6222,0.6047,0.7049,0.705,0.7051,0,0.4657,0.4757,0.4927,0.5,0.5092,0.5266,0.5356,0.5505,0.5594,0.5896,0.5985,0.6302,0.6455,0.6843,0.6884,0.7066,0.6804,0.6862,0.6556,0.6328,0.6246,0.5993,0.5823,0.6376,0.6371,0.6367,0.6364,0,0.4885,0.4904,0.5026,0.5139,0.5233,0.5357,0.5479,0.5556,0.5717,0.5857,0.6076,0.6237,0.6587,0.6608,0.6836,0.6875,0.6485,0.6783,0.6638,0.5846,0.5494,0.5305,0.6062,0.6329,0.6333,0.6335,0.6337,0.6338,0.502,0.5101,0.5155,0.5275,0.5347,0.5393,0.5425,0.5506,0.5622,0.5733,0.6007,0.611,0.6273,0.6524,0.6531,0.6327,0.6331,0.6077,0.6052,0.5861,0.55,0.6206,0.639,0.6393,0.6397,0.6399,0.6402,0,0.513,0.5154,0.527,0.5323,0.5348,0.5392,0.5442,0.5372,0.5382,0.5554,0.5682,0.5749,0.5799,0.5869,0.5819,0.5604,0.5325,0.5445,0.4994,0.4903,0.5634,0.54,0.5261,0.5261,0.5261,0.5261,0.5262,0.5262,0.5171,0.5233,0.5252,0.5275,0.5288,0.5199,0.5176,0.5067,0.5088,0.4997,0.4963,0.5076,0.5276,0.5371,0.5165,0.5045,0.4642,0.4451,0.4496,0.4958,0.5011,0.5061,0.4817,0.4558,0.4557,0.3495,0.3487,0.3481]},{"header":{"parameterUnit":"m.s-1","parameterCategory":2,"la1":30.2991,"la2":30.254,"lo1":-89.0895,"lo2":-89.0444,"dy":0.0017,"dx":0.0017,"nx":28,"ny":28,"refTime":"2024-07-17T21:00:00:Z","depth":"0","parameterNumber":3,"parameterNumberName":"V-component_of_CURRENTS"},"data":[0,0,0,0,0,0,0,0,0,0,0,0,0,0,0,0,0,0,0,0,0,0,0,0,0,0,0,0,0,0,0,0,0,0,0,0,0,0,0,0,0,0,0,0,0,0,0,0,0,0,0,0,0,0,0,0,0,0,-0.0026,-0.0027,0,-0.0097,-0.0098,-0.0099,-0.0155,-0.0156,-0.0156,-0.0157,-0.028,-0.0283,-0.0286,0,0,0,0,0,0,0,0,0,0,0,0,0,0.0001,0.0001,-0.0026,-0.0027,-0.0028,-0.0097,-0.0098,-0.0099,-0.0155,-0.0156,-0.0156,-0.0157,-0.0279,-0.0283,-0.0286,0,0,0,0,0,0,0,0,0,0,0,0,0,-0.0035,0.0001,-0.0026,-0.0063,-0.0067,-0.0096,-0.0098,-0.0099,-0.0155,-0.0156,-0.0157,-0.0157,-0.0278,-0.0282,-0.0286,-0.03,0,0,-0.03,-0.0301,0,0,0,0,0,0,0,0,-0.0033,-0.0036,-0.0057,-0.0061,-0.0065,-0.0117,-0.0133,-0.0168,-0.0155,-0.0123,-0.0157,-0.0158,-0.0229,-0.0237,-0.025,-0.0306,-0.0311,-0.03,-0.0303,-0.0304,-0.0306,0,0,0,0,0,0,0,-0.003,-0.0034,-0.0056,-0.0058,-0.0063,-0.0096,-0.0101,-0.014,-0.0174,-0.0126,-0.013,-0.0135,-0.0232,-0.0246,-0.0254,-0.0313,-0.03,-0.0304,-0.0306,-0.0308,-0.0383,-0.0383,0,0,0,0,0,0,-0.0015,-0.0031,-0.0054,-0.0058,-0.0049,-0.0095,-0.0102,-0.0101,-0.0172,-0.0183,-0.0135,-0.0138,-0.0238,-0.0249,-0.0258,-0.0259,-0.0304,-0.0308,-0.0311,-0.0384,-0.0383,-0.0383,0,0,0,0,0,0,-0.0014,-0.0016,-0.0051,-0.0045,-0.0052,-0.0095,-0.0093,-0.0102,-0.0114,-0.0178,-0.019,-0.0138,-0.0239,-0.0252,-0.0285,-0.0265,-0.031,-0.0314,-0.0385,-0.0384,-0.0383,-0.0273,0,0,0,0,0,0,-0.0012,-0.0015,-0.001,-0.0044,-0.0052,-0.0056,-0.0093,-0.0103,-0.0116,-0.0121,-0.0185,-0.0197,-0.0241,-0.0278,-0.0289,-0.0272,-0.0318,-0.0385,-0.0384,-0.0383,-0.0277,-0.0269,-0.0261,0,0,0,0,0,-0.0011,0.0009,-0.0009,-0.0012,-0.0042,-0.0055,-0.0061,-0.0096,-0.0115,-0.0112,-0.0157,-0.0195,-0.0279,-0.0281,-0.0294,-0.0278,-0.0386,-0.0385,-0.0383,-0.0281,-0.027,-0.0261,0,0,0,0,0,0,0.0026,0.0004,-0.0016,-0.0004,-0.0025,-0.0063,-0.0062,-0.0088,-0.012,-0.0126,-0.0189,-0.0204,-0.0229,-0.0268,-0.0268,-0.0297,-0.0338,-0.034,-0.0256,-0.0247,-0.0239,-0.0186,-0.0321,0,0,0,0,0,0.0037,0.0044,0.0014,0.0023,0.0016,-0.0023,-0.0033,-0.0055,-0.0087,-0.0103,-0.0147,-0.0194,-0.0233,-0.0251,-0.0295,-0.0306,-0.0302,-0.0305,-0.0297,-0.0289,-0.0256,-0.0244,-0.0231,-0.0378,-0.0378,-0.0378,0,0,0.0053,0.0042,0.0045,0.003,0.001,0.0018,-0.0031,-0.0035,-0.0029,-0.0111,-0.0118,-0.0172,-0.0233,-0.0249,-0.0262,-0.0277,-0.0242,-0.0288,-0.028,-0.0251,-0.0241,-0.0226,-0.0213,-0.0377,-0.0378,-0.0378,0,0,0.01,0.0081,0.0105,0.0092,0.0073,0.0052,0.0056,0.0023,0.0008,-0.001,-0.0066,-0.0097,-0.0161,-0.0188,-0.0214,-0.0184,-0.0205,-0.0209,-0.0115,-0.0105,-0.0091,-0.008,-0.0033,-0.0018,-0.0196,-0.0196,-0.0196,0,0.012,0.015,0.011,0.0128,0.0136,0.0075,0.011,0.0082,0.0042,0.0051,0.0002,-0.0057,-0.0125,-0.0117,-0.0117,-0.0162,-0.0146,-0.0147,-0.009,-0.0078,-0.0068,-0.0023,-0.0008,-0.0191,-0.0191,-0.0192,-0.0192,0,0.0186,0.0205,0.022,0.0227,0.0224,0.0245,0.0208,0.0206,0.0175,0.0152,0.0146,0.0063,0.0043,0.0001,-0.0056,-0.0016,-0.0022,-0.0085,-0.0105,-0.0046,-0.0003,0.0011,-0.0183,-0.0185,-0.0186,-0.0188,0,0,0.0249,0.0268,0.0272,0.0309,0.0286,0.0306,0.0313,0.0327,0.0367,0.0299,0.0359,0.0257,0.0226,0.0196,0.0126,0.0121,0.0185,0.0059,0.0057,0.0126,0.0251,0.0198,0.0207,0.0135,0.0138,0.014,0.0262,0,0.032,0.04,0.0377,0.0454,0.0502,0.0458,0.0486,0.0482,0.0461,0.0495,0.0419,0.0429,0.0296,0.0304,0.0275,0.0211,0.0223,0.016,0.0167,0.0169,0.0129,0.0221,0.0174,0.0274,0.0275,0.0278,0.0279,0,0.0405,0.0449,0.0549,0.0613,0.063,0.066,0.0725,0.0739,0.0741,0.073,0.0717,0.0657,0.0649,0.0519,0.0474,0.0445,0.037,0.0307,0.0309,0.0235,0.014,0.0207,0.0299,-0.0018,0.03,0.0298,0.0297,0,0.0518,0.0578,0.0678,0.0693,0.0741,0.0789,0.0814,0.0826,0.0873,0.09,0.0955,0.0897,0.0929,0.0805,0.0661,0.0582,0.0626,0.0496,0.0389,0.0386,0.0336,0.0324,0.0139,0.0484,0.0483,0.0483,0.0483,0,0.0626,0.0703,0.0746,0.0803,0.0924,0.0916,0.1035,0.1045,0.1097,0.1204,0.1103,0.1205,0.1003,0.0982,0.0789,0.0669,0.0734,0.0451,0.0421,0.0372,0.0362,0.0072,-0.0096,0.0488,0.0487,0.0486,0.0485,0,0.0745,0.0768,0.0888,0.0961,0.0988,0.108,0.1166,0.1244,0.129,0.1438,0.147,0.1485,0.1473,0.1268,0.1127,0.0883,0.0561,0.0669,0.0644,0.0606,0.0128,-0.0031,-0.0173,-0.0307,0.0556,0.0556,0.0555,0,0.0826,0.0903,0.1008,0.106,0.1097,0.1208,0.1277,0.1334,0.1426,0.1629,0.1728,0.179,0.1876,0.1658,0.1252,0.0954,0.0637,0.0654,0.0451,0.0135,-0.0063,-0.0179,-0.0291,0.0451,0.0449,0.0448,0.0447,0,0.0968,0.1001,0.1072,0.118,0.1266,0.1379,0.1495,0.1607,0.1726,0.1909,0.2172,0.2289,0.2099,0.1818,0.1367,0.1081,0.0394,0.0619,0.0299,-0.0141,-0.028,-0.0434,0.0355,0.0438,0.0439,0.044,0.044,0.0441,0.1055,0.1111,0.1183,0.1285,0.1389,0.154,0.1667,0.184,0.2084,0.2415,0.2504,0.2776,0.2254,0.1654,0.1237,0.0338,0.0361,0.0007,-0.0139,-0.0212,-0.0419,0.0364,0.0384,0.0384,0.0385,0.0385,0.0385,0,0.1125,0.1164,0.127,0.1391,0.1521,0.1568,0.1796,0.1973,0.2314,0.269,0.2975,0.2888,0.2224,0.1488,0.0314,-0.0311,-0.0554,-0.0675,-0.0882,-0.0949,-0.024,-0.0333,-0.0477,-0.0476,-0.0476,-0.0476,-0.0475,-0.0475,0.1149,0.1226,0.127,0.1472,0.1574,0.1776,0.1927,0.2254,0.2567,0.3053,0.3285,0.3419,0.2782,0.0696,-0.0745,-0.1081,-0.1493,-0.1581,-0.1764,-0.1356,-0.1306,-0.1258,-0.1388,-0.175,-0.1752,-0.2432,-0.2439,-0.2445]}],[{"header":{"parameterUnit":"m.s-1","parameterCategory":2,"la1":30.2991,"la2":30.254,"lo1":-89.0895,"lo2":-89.0444,"dy":0.0017,"dx":0.0017,"nx":28,"ny":28,"refTime":"2024-07-17T21:00:00:Z","depth":"2","parameterNumber":2,"parameterNumberName":"U-component_of_CURRENTS"},"data":[0,0,0,0,0,0,0,0,0,0,0,0,0,0,0,0,0,0,0,0,0,0,0,0,0,0,0,0,0,0,0,0,0,0,0,0,0,0,0,0,0,0,0,0,0,0,0,0,0,0,0,0,0,0,0,0,0,0,0.3163,0.3163,0,0.3226,0.3227,0.3228,0.3243,0.3242,0.3241,0.3241,0.3293,0.3295,0.3296,0,0,0,0,0,0,0,0,0,0,0,0,0,0.306,0.3062,0.3163,0.3163,0.3164,0.3226,0.3227,0.3228,0.3243,0.3242,0.3241,0.324,0.3292,0.3294,0.3297,0,0,0,0,0,0,0,0,0,0,0,0,0,0.3114,0.3062,0.3163,0.3177,0.3179,0.3226,0.3227,0.3228,0.3243,0.3242,0.3241,0.324,0.3291,0.3294,0.3297,0.3334,0,0,0.3306,0.3307,0,0,0,0,0,0,0,0,0.3111,0.3118,0.3175,0.3176,0.3179,0.3224,0.321,0.3262,0.3243,0.3221,0.3241,0.324,0.3268,0.3273,0.329,0.3336,0.3338,0.3306,0.3308,0.3309,0.331,0,0,0,0,0,0,0,0.3107,0.3115,0.319,0.3175,0.3178,0.3182,0.3189,0.322,0.325,0.3223,0.3223,0.3228,0.3269,0.3287,0.3291,0.3339,0.3306,0.3309,0.3311,0.3312,0.346,0.3462,0,0,0,0,0,0,0.3096,0.3112,0.3188,0.3192,0.3139,0.3185,0.3192,0.3212,0.325,0.3255,0.3228,0.3228,0.3282,0.3287,0.3293,0.3398,0.3309,0.3312,0.3314,0.3457,0.346,0.3462,0,0,0,0,0,0,0.3094,0.3103,0.3185,0.315,0.3161,0.3187,0.3209,0.3213,0.325,0.3254,0.3258,0.3262,0.3282,0.3289,0.3331,0.3397,0.3313,0.3316,0.3455,0.3458,0.3461,0.3569,0,0,0,0,0,0,0.3091,0.3102,0.3115,0.315,0.3162,0.3226,0.321,0.3215,0.3252,0.3253,0.3284,0.3287,0.3282,0.3326,0.3334,0.34,0.3318,0.3452,0.3456,0.346,0.3563,0.3576,0.3587,0,0,0,0,0,0.3088,0.3113,0.3116,0.3125,0.3179,0.3227,0.3235,0.325,0.3255,0.3279,0.3294,0.3287,0.3358,0.333,0.3338,0.3407,0.345,0.3455,0.346,0.3558,0.3573,0.3587,0,0,0,0,0,0,0.3074,0.3118,0.3122,0.3159,0.3193,0.3229,0.3261,0.3269,0.3304,0.3311,0.3311,0.3316,0.3373,0.3374,0.3344,0.346,0.3405,0.3412,0.3477,0.3492,0.3504,0.3544,0.3321,0,0,0,0,0,0.3077,0.3113,0.3147,0.318,0.3206,0.3239,0.3262,0.3275,0.3306,0.3323,0.3342,0.3368,0.34,0.3431,0.3446,0.3519,0.3565,0.3568,0.358,0.359,0.3628,0.3735,0.3761,0.3478,0.3478,0.3478,0,0,0.308,0.311,0.3128,0.318,0.3218,0.3272,0.3254,0.3306,0.335,0.3323,0.3398,0.3404,0.3422,0.349,0.352,0.3504,0.3699,0.3596,0.3605,0.3639,0.3743,0.3771,0.3796,0.3482,0.3481,0.3481,0,0,0.3108,0.3141,0.318,0.3221,0.3275,0.3306,0.3327,0.3378,0.3404,0.3454,0.3457,0.3514,0.3545,0.3599,0.3622,0.3718,0.3744,0.3714,0.3832,0.3935,0.396,0.3982,0.4097,0.4129,0.3738,0.3738,0.3739,0,0.3108,0.3172,0.3197,0.3252,0.331,0.3331,0.3403,0.3431,0.3482,0.3522,0.3483,0.3597,0.3608,0.3737,0.3767,0.3752,0.381,0.3775,0.3954,0.3977,0.3998,0.411,0.4144,0.3744,0.3744,0.3743,0.3742,0,0.3165,0.3227,0.3268,0.3352,0.3408,0.3481,0.3529,0.3577,0.3601,0.3626,0.3728,0.3753,0.384,0.3845,0.3835,0.4007,0.4,0.3943,0.3922,0.4034,0.4144,0.4177,0.3753,0.375,0.3749,0.3747,0,0,0.3153,0.3283,0.33,0.3357,0.3482,0.3522,0.3627,0.3723,0.3784,0.3825,0.3962,0.4005,0.4036,0.4069,0.4089,0.4176,0.4373,0.4138,0.414,0.4262,0.4627,0.4446,0.4465,0.4344,0.435,0.4355,0.4652,0,0.3205,0.3321,0.3389,0.3513,0.359,0.367,0.3765,0.3842,0.3892,0.4016,0.4087,0.4192,0.4118,0.4192,0.4277,0.4342,0.4463,0.43,0.4493,0.45,0.4333,0.4497,0.4119,0.4335,0.4684,0.4689,0.4693,0,0.3257,0.3325,0.3465,0.361,0.3654,0.3743,0.3906,0.3982,0.4142,0.4183,0.4316,0.4375,0.4567,0.4473,0.4678,0.4576,0.4639,0.4667,0.4677,0.4497,0.438,0.4275,0.4382,0.4749,0.4744,0.474,0.4737,0,0.3246,0.339,0.3506,0.3558,0.3714,0.381,0.3915,0.4053,0.4138,0.4339,0.4426,0.4613,0.4739,0.4846,0.4901,0.4825,0.511,0.5008,0.492,0.4909,0.4621,0.4572,0.5197,0.5197,0.5196,0.5195,0.5194,0,0.3315,0.3419,0.3509,0.3568,0.371,0.3823,0.3974,0.4083,0.4283,0.4382,0.4536,0.4669,0.483,0.4992,0.5034,0.5084,0.5228,0.5,0.4988,0.4645,0.4597,0.4958,0.4926,0.5206,0.5204,0.5202,0.52,0,0.3367,0.3444,0.3536,0.3655,0.3721,0.3824,0.4038,0.4094,0.4282,0.4454,0.4551,0.4792,0.4951,0.5091,0.5287,0.5216,0.5307,0.5295,0.4887,0.4818,0.5019,0.4989,0.5256,0.5252,0.5249,0.5247,0.5244,0,0.3467,0.346,0.3542,0.3582,0.3674,0.3819,0.3896,0.4103,0.4157,0.4472,0.4547,0.4831,0.4935,0.5177,0.5141,0.5232,0.5321,0.4907,0.4665,0.5071,0.5034,0.5009,0.4984,0.4363,0.4354,0.4346,0.434,0,0.3443,0.3405,0.3428,0.3509,0.3595,0.3703,0.3843,0.3895,0.4087,0.4231,0.4408,0.4577,0.4812,0.4723,0.4847,0.4829,0.4848,0.4749,0.5351,0.4357,0.4239,0.4197,0.4202,0.4273,0.428,0.4285,0.4288,0.4291,0.3384,0.3343,0.3246,0.3371,0.3449,0.3507,0.3518,0.3654,0.375,0.3893,0.4111,0.4222,0.436,0.4328,0.4251,0.4194,0.449,0.43,0.432,0.435,0.4144,0.4021,0.3981,0.3985,0.3989,0.3993,0.3996,0,0.3194,0.3141,0.3111,0.3171,0.316,0.3335,0.3377,0.3323,0.3354,0.3577,0.3691,0.346,0.35,0.3675,0.3472,0.3468,0.341,0.3348,0.3247,0.3318,0.3381,0.312,0.2689,0.2684,0.268,0.2676,0,0,0.3087,0.2942,0.2885,0.2795,0.2905,0.2864,0.2861,0.2891,0.296,0.2937,0.3018,0.33,0.354,0.3032,0.2992,0.281,0.3025,0.2705,0.3766,0.3717,0.3773,0.3958,0.3641,0,0,0,0,0]},{"header":{"parameterUnit":"m.s-1","parameterCategory":2,"la1":30.2991,"la2":30.254,"lo1":-89.0895,"lo2":-89.0444,"dy":0.0017,"dx":0.0017,"nx":28,"ny":28,"refTime":"2024-07-17T21:00:00:Z","depth":"2","parameterNumber":3,"parameterNumberName":"V-component_of_CURRENTS"},"data":[0,0,0,0,0,0,0,0,0,0,0,0,0,0,0,0,0,0,0,0,0,0,0,0,0,0,0,0,0,0,0,0,0,0,0,0,0,0,0,0,0,0,0,0,0,0,0,0,0,0,0,0,0,0,0,0,0,0,-0.0054,-0.0054,0,-0.012,-0.0121,-0.0122,-0.0175,-0.0175,-0.0175,-0.0176,-0.028,-0.0283,-0.0285,0,0,0,0,0,0,0,0,0,0,0,0,0,-0.0036,-0.0036,-0.0054,-0.0054,-0.0055,-0.012,-0.0121,-0.0122,-0.0175,-0.0175,-0.0175,-0.0176,-0.028,-0.0283,-0.0286,0,0,0,0,0,0,0,0,0,0,0,0,0,-0.0069,-0.0036,-0.0054,-0.0087,-0.0091,-0.012,-0.0121,-0.0123,-0.0175,-0.0175,-0.0175,-0.0176,-0.0279,-0.0282,-0.0286,-0.03,0,0,-0.0298,-0.0299,0,0,0,0,0,0,0,0,-0.0067,-0.007,-0.0082,-0.0085,-0.0089,-0.0137,-0.0153,-0.0183,-0.0174,-0.0145,-0.0176,-0.0176,-0.0234,-0.0242,-0.0256,-0.0305,-0.031,-0.0298,-0.03,-0.0302,-0.0303,0,0,0,0,0,0,0,-0.0065,-0.0068,-0.0083,-0.0082,-0.0087,-0.0121,-0.0125,-0.016,-0.0189,-0.0148,-0.0151,-0.0155,-0.0237,-0.0252,-0.0259,-0.0311,-0.0298,-0.0301,-0.0303,-0.0305,-0.0373,-0.0373,0,0,0,0,0,0,-0.0048,-0.0065,-0.008,-0.0084,-0.0076,-0.012,-0.0126,-0.0123,-0.0188,-0.0197,-0.0154,-0.0157,-0.0246,-0.0255,-0.0263,-0.0264,-0.0302,-0.0305,-0.0307,-0.0374,-0.0373,-0.0373,0,0,0,0,0,0,-0.0047,-0.0048,-0.0078,-0.0075,-0.0081,-0.0119,-0.0117,-0.0124,-0.0139,-0.0192,-0.0202,-0.016,-0.0246,-0.0258,-0.0284,-0.027,-0.0307,-0.031,-0.0374,-0.0374,-0.0373,-0.028,0,0,0,0,0,0,-0.0046,-0.0048,-0.0043,-0.0073,-0.008,-0.0081,-0.0116,-0.0125,-0.0139,-0.0143,-0.02,-0.021,-0.0248,-0.0277,-0.0287,-0.0276,-0.0313,-0.0375,-0.0374,-0.0373,-0.0284,-0.0276,-0.027,0,0,0,0,0,-0.0045,-0.0027,-0.0042,-0.0044,-0.0071,-0.008,-0.0087,-0.0118,-0.0138,-0.0135,-0.0174,-0.0209,-0.0279,-0.028,-0.0292,-0.0281,-0.0375,-0.0374,-0.0373,-0.0287,-0.0278,-0.027,0,0,0,0,0,0,-0.0016,-0.0031,-0.0048,-0.0036,-0.0053,-0.0088,-0.0087,-0.0112,-0.0141,-0.0147,-0.0203,-0.0215,-0.0234,-0.027,-0.027,-0.0299,-0.0333,-0.0335,-0.0264,-0.0256,-0.0249,-0.0216,-0.0316,0,0,0,0,0,-0.0007,0.0002,-0.0021,-0.0013,-0.0016,-0.0053,-0.0063,-0.0082,-0.0111,-0.0125,-0.0165,-0.0207,-0.0239,-0.0256,-0.0292,-0.0306,-0.0333,-0.0308,-0.0301,-0.0295,-0.0277,-0.0304,-0.0297,-0.0369,-0.0369,-0.037,0,0,0.0005,-0.0001,0.0002,-0.0006,-0.0024,-0.0014,-0.006,-0.0064,-0.0059,-0.0132,-0.0139,-0.0185,-0.0238,-0.0253,-0.0265,-0.0281,-0.0289,-0.0294,-0.0288,-0.0273,-0.0302,-0.0295,-0.0288,-0.0369,-0.0369,-0.0369,0,0,0.0047,0.0031,0.0057,0.0047,0.0033,0.0015,0.0019,-0.0011,-0.0027,-0.0041,-0.0092,-0.0122,-0.0175,-0.0204,-0.0227,-0.0204,-0.0253,-0.0223,-0.016,-0.0186,-0.018,-0.0175,-0.0197,-0.0195,-0.0218,-0.0218,-0.0218,0,0.0062,0.0092,0.0062,0.0082,0.0088,0.0036,0.0068,0.0042,0.0006,0.0003,-0.003,-0.0096,-0.0147,-0.0158,-0.0153,-0.0187,-0.0209,-0.0185,-0.0175,-0.0171,-0.0167,-0.0192,-0.019,-0.0213,-0.0214,-0.0214,-0.0215,0,0.0124,0.0142,0.0157,0.0169,0.017,0.0186,0.0157,0.0151,0.0122,0.0094,0.0073,0.0003,-0.0029,-0.0059,-0.0101,-0.01,-0.0127,-0.0163,-0.019,-0.0154,-0.0183,-0.0183,-0.0207,-0.0208,-0.021,-0.0211,0,0,0.0173,0.02,0.0203,0.0234,0.022,0.0237,0.0245,0.0248,0.0265,0.0206,0.0227,0.0149,0.0106,0.0078,0.0016,-0.0016,-0.002,-0.0071,-0.0074,-0.0081,-0.0072,-0.0143,-0.0151,-0.0055,-0.0054,-0.0054,-0.0102,0,0.0233,0.0307,0.0296,0.0362,0.0402,0.0365,0.0387,0.0375,0.0343,0.0345,0.0266,0.0253,0.0159,0.015,0.0104,0.0017,-0.0016,-0.0003,-0.0117,-0.0119,-0.0178,-0.0152,-0.0114,-0.0158,-0.0102,-0.0102,-0.0102,0,0.0303,0.0347,0.0432,0.0487,0.0501,0.0527,0.0563,0.0571,0.054,0.0513,0.047,0.0407,0.0358,0.0272,0.0148,0.0161,0.0059,-0.0021,-0.0026,-0.0121,-0.0191,-0.0188,-0.0161,-0.0103,-0.0103,-0.0103,-0.0103,0,0.038,0.0444,0.0527,0.054,0.0586,0.0621,0.0641,0.0628,0.0648,0.0623,0.0638,0.0547,0.0531,0.0389,0.0217,0.0189,0.0079,0.0017,-0.0144,-0.0151,-0.0155,-0.0163,-0.0067,-0.0067,-0.0067,-0.0067,-0.0066,0,0.0453,0.0506,0.0574,0.0616,0.0709,0.0714,0.0792,0.0781,0.0791,0.0852,0.0737,0.0778,0.0561,0.0468,0.0281,0.0077,0.0127,-0.0121,-0.0165,-0.0124,-0.0128,-0.0113,-0.0118,-0.0068,-0.0068,-0.0068,-0.0067,0,0.0498,0.0539,0.0638,0.0722,0.0749,0.0813,0.0879,0.0932,0.0931,0.1011,0.1019,0.0957,0.0845,0.0606,0.0393,0.0179,-0.0022,-0.011,-0.005,-0.0087,-0.0252,-0.0251,-0.0295,-0.0297,-0.03,-0.0302,-0.0304,0,0.0512,0.058,0.0718,0.0765,0.0796,0.0887,0.0952,0.0988,0.1061,0.1146,0.1213,0.1135,0.1125,0.076,0.0369,0.0018,-0.0018,-0.02,-0.0268,-0.0236,-0.0274,-0.0269,-0.0266,-0.023,-0.0231,-0.0232,-0.0233,0,0.0528,0.0597,0.0673,0.0818,0.0901,0.1016,0.1126,0.1237,0.133,0.1435,0.158,0.1587,0.1214,0.0877,0.0347,0.0105,-0.0153,-0.0232,-0.0184,-0.0194,-0.0184,-0.0219,-0.0215,-0.024,-0.0239,-0.0238,-0.0238,-0.0238,0.05,0.0563,0.0701,0.0866,0.096,0.1165,0.1333,0.1497,0.1715,0.1921,0.1863,0.1864,0.1396,0.0736,0.0289,-0.0207,-0.0199,-0.0369,-0.0362,-0.0355,-0.0355,-0.0351,-0.0437,-0.0438,-0.0438,-0.0439,-0.0439,0,0.0474,0.0567,0.0725,0.093,0.1113,0.1166,0.1458,0.1669,0.2019,0.2114,0.2214,0.1786,0.1369,0.0841,0.0092,-0.036,-0.0372,-0.0482,-0.0392,-0.0383,-0.0375,-0.0373,-0.0462,-0.0463,-0.0464,-0.0465,0,0,0.0408,0.0563,0.0742,0.1069,0.1207,0.1474,0.1691,0.2013,0.2183,0.2362,0.232,0.2151,0.1507,0.0964,0.0364,-0.0043,-0.0102,-0.012,-0.0057,0.013,0.0143,-0.0272,-0.0255,0,0,0,0,0]}],[{"header":{"parameterUnit":"m.s-1","parameterCategory":2,"la1":30.2991,"la2":30.254,"lo1":-89.0895,"lo2":-89.0444,"dy":0.0017,"dx":0.0017,"nx":28,"ny":28,"refTime":"2024-07-17T21:00:00:Z","depth":"4","parameterNumber":2,"parameterNumberName":"U-component_of_CURRENTS"},"data":[0,0,0,0,0,0,0,0,0,0,0,0,0,0,0,0,0,0,0,0,0,0,0,0,0,0,0,0,0,0,0,0,0,0,0,0,0,0,0,0,0,0,0,0,0,0,0,0,0,0,0,0,0,0,0,0,0,0,0.1729,0.173,0,0.1812,0.1813,0.1814,0.1902,0.1904,0.1905,0.1906,0.2022,0.2024,0.2026,0,0,0,0,0,0,0,0,0,0,0,0,0,0.1668,0.1668,0.1729,0.173,0.1731,0.1812,0.1813,0.1815,0.1902,0.1904,0.1905,0.1907,0.2021,0.2024,0.2026,0,0,0,0,0,0,0,0,0,0,0,0,0,0.1717,0.1668,0.1728,0.1784,0.179,0.1812,0.1813,0.1815,0.1902,0.1904,0.1906,0.1907,0.2021,0.2023,0.2026,0.2007,0,0,0.2035,0.2036,0,0,0,0,0,0,0,0,0.1714,0.1719,0.1775,0.1781,0.1787,0.1849,0.1835,0.1881,0.1901,0.1859,0.1906,0.1908,0.1966,0.1973,0.1984,0.2012,0.2017,0.2035,0.2037,0.2038,0.2039,0,0,0,0,0,0,0,0.171,0.1716,0.1762,0.1776,0.1783,0.1813,0.1822,0.1844,0.1901,0.1863,0.187,0.1879,0.197,0.1981,0.1988,0.2019,0.2035,0.2038,0.204,0.2041,0.2201,0.2203,0,0,0,0,0,0,0.1697,0.1712,0.1759,0.1764,0.1755,0.1813,0.1823,0.1827,0.1901,0.1914,0.1877,0.1883,0.1975,0.1984,0.1992,0.2092,0.2038,0.2041,0.2043,0.2198,0.2201,0.2204,0,0,0,0,0,0,0.1695,0.17,0.1756,0.1741,0.175,0.1812,0.1816,0.1828,0.1887,0.1911,0.1925,0.193,0.1977,0.1988,0.2054,0.2093,0.2042,0.2045,0.2195,0.2199,0.2203,0.2216,0,0,0,0,0,0,0.1693,0.1699,0.172,0.1739,0.175,0.1805,0.1815,0.1828,0.1887,0.1897,0.196,0.197,0.1979,0.205,0.2057,0.2096,0.2047,0.2192,0.2197,0.2201,0.2213,0.222,0.2227,0,0,0,0,0,0.169,0.1701,0.172,0.1727,0.1769,0.1807,0.1817,0.1866,0.1888,0.1925,0.1966,0.1971,0.2086,0.2053,0.2061,0.2102,0.219,0.2196,0.2201,0.221,0.2219,0.2226,0,0,0,0,0,0,0.1688,0.1711,0.1733,0.1752,0.1796,0.1823,0.1861,0.1888,0.1947,0.1965,0.1989,0.2003,0.2085,0.2093,0.2057,0.2168,0.2144,0.2151,0.2148,0.2157,0.2163,0.2207,0.205,0,0,0,0,0,0.1694,0.1714,0.1743,0.1769,0.1791,0.1834,0.1863,0.1894,0.1936,0.1966,0.2011,0.2059,0.2105,0.2131,0.2177,0.2219,0.226,0.2259,0.2265,0.2271,0.2315,0.2407,0.2426,0.2223,0.2223,0.2223,0,0,0.1699,0.1718,0.1731,0.1772,0.1809,0.1839,0.1859,0.1911,0.1953,0.1966,0.2052,0.2092,0.2128,0.2189,0.2225,0.2202,0.2345,0.2278,0.2282,0.2325,0.2415,0.2435,0.2453,0.2227,0.2226,0.2225,0,0,0.1706,0.1742,0.1757,0.1787,0.1843,0.1874,0.1899,0.1953,0.2004,0.2072,0.2101,0.2165,0.2232,0.2263,0.2282,0.2356,0.2388,0.238,0.2434,0.2521,0.2539,0.2555,0.2598,0.2619,0.2369,0.2369,0.2369,0,0.1715,0.1737,0.1773,0.1791,0.1821,0.1892,0.1917,0.1973,0.2049,0.211,0.2113,0.2253,0.2267,0.2346,0.2377,0.237,0.2426,0.2386,0.2529,0.2546,0.2563,0.2604,0.2626,0.2371,0.2371,0.237,0.237,0,0.1718,0.1751,0.1768,0.1815,0.1852,0.1895,0.1957,0.2039,0.211,0.2173,0.2301,0.2326,0.2418,0.242,0.242,0.2544,0.2547,0.2532,0.2501,0.2584,0.2622,0.2644,0.2373,0.2372,0.2372,0.2371,0,0,0.1695,0.1758,0.177,0.1798,0.1869,0.1899,0.1991,0.2104,0.2199,0.2288,0.2395,0.2474,0.2532,0.2562,0.2568,0.2632,0.2756,0.2645,0.2648,0.2676,0.2951,0.2746,0.275,0.2782,0.2787,0.2791,0.2918,0,0.17,0.174,0.1768,0.1826,0.1855,0.1939,0.2019,0.213,0.225,0.2378,0.2455,0.2569,0.2569,0.2621,0.269,0.2751,0.2826,0.2724,0.2881,0.2885,0.2683,0.2773,0.2806,0.2934,0.2939,0.2943,0.2946,0,0.168,0.1723,0.1765,0.185,0.1872,0.1924,0.2089,0.2166,0.2361,0.2452,0.2593,0.2681,0.2803,0.2777,0.2954,0.2903,0.2961,0.299,0.2995,0.2827,0.2724,0.2847,0.2987,0.2984,0.2981,0.2978,0.2975,0,0.1636,0.1714,0.1757,0.1777,0.1882,0.1949,0.2039,0.2219,0.2299,0.253,0.2629,0.2794,0.2881,0.2998,0.3091,0.3057,0.3266,0.3201,0.3073,0.3057,0.3194,0.3177,0.3362,0.3362,0.3361,0.3361,0.3361,0,0.1586,0.1611,0.1756,0.1772,0.1845,0.1939,0.2064,0.2181,0.2354,0.2457,0.2676,0.277,0.2961,0.3097,0.3153,0.3182,0.3326,0.3121,0.3095,0.319,0.3171,0.3208,0.3188,0.3366,0.3365,0.3364,0.3363,0,0.1447,0.1542,0.1599,0.1763,0.1809,0.1861,0.2021,0.2104,0.2323,0.2457,0.2537,0.2791,0.298,0.3139,0.3313,0.3234,0.3289,0.3273,0.3376,0.3348,0.3001,0.2981,0.3117,0.3111,0.3107,0.3103,0.3099,0,0.1336,0.137,0.1571,0.1583,0.1641,0.1757,0.1818,0.2041,0.2123,0.2439,0.2463,0.2754,0.2913,0.3008,0.3167,0.3273,0.325,0.3239,0.3117,0.3024,0.2987,0.2974,0.2961,0.3091,0.309,0.3089,0.3088,0,0.1128,0.1253,0.1322,0.1408,0.1469,0.1537,0.1667,0.1726,0.1989,0.2205,0.2381,0.2538,0.274,0.2887,0.3019,0.3074,0.321,0.3186,0.3195,0.308,0.2994,0.2959,0.2952,0.3071,0.3073,0.3075,0.3076,0,0.0977,0.0997,0.1143,0.1191,0.1258,0.1304,0.1418,0.1555,0.169,0.2066,0.2108,0.2445,0.2688,0.2785,0.2887,0.2949,0.2896,0.278,0.2809,0.2829,0.2679,0.2524,0.2465,0,0,0,0,0,0.0829,0.0844,0.0885,0.0967,0.104,0.1103,0.1282,0.1421,0.1723,0.1778,0.1951,0.2147,0.236,0.2519,0.2533,0.2734,0.2881,0.2731,0.2752,0.2977,0.2996,0.2847,0,0,0,0,0,0,0.0704,0.0743,0.0834,0.0782,0.0796,0.087,0.1004,0.1204,0.128,0.1596,0.1741,0.1967,0.2219,0.233,0.2473,0.2519,0.2478,0.2926,0.2919,0.2966,0.2983,0.2999,0.2853,0,0,0,0,0]},{"header":{"parameterUnit":"m.s-1","parameterCategory":2,"la1":30.2991,"la2":30.254,"lo1":-89.0895,"lo2":-89.0444,"dy":0.0017,"dx":0.0017,"nx":28,"ny":28,"refTime":"2024-07-17T21:00:00:Z","depth":"4","parameterNumber":3,"parameterNumberName":"V-component_of_CURRENTS"},"data":[0,0,0,0,0,0,0,0,0,0,0,0,0,0,0,0,0,0,0,0,0,0,0,0,0,0,0,0,0,0,0,0,0,0,0,0,0,0,0,0,0,0,0,0,0,0,0,0,0,0,0,0,0,0,0,0,0,0,0.0037,0.0036,0,-0.0003,-0.0004,-0.0004,-0.0042,-0.0043,-0.0043,-0.0044,-0.0121,-0.0123,-0.0124,0,0,0,0,0,0,0,0,0,0,0,0,0,0.0037,0.0037,0.0037,0.0036,0.0036,-0.0003,-0.0004,-0.0004,-0.0042,-0.0043,-0.0043,-0.0044,-0.0121,-0.0123,-0.0125,0,0,0,0,0,0,0,0,0,0,0,0,0,0.002,0.0037,0.0037,0.0013,0.001,-0.0003,-0.0004,-0.0005,-0.0042,-0.0043,-0.0043,-0.0044,-0.012,-0.0122,-0.0125,-0.0127,0,0,-0.0133,-0.0134,0,0,0,0,0,0,0,0,0.0021,0.002,0.0017,0.0014,0.0012,-0.0018,-0.0032,-0.0047,-0.0042,-0.0023,-0.0044,-0.0044,-0.0089,-0.0094,-0.0101,-0.0131,-0.0134,-0.0133,-0.0134,-0.0135,-0.0136,0,0,0,0,0,0,0,0.0023,0.0022,0.002,0.0016,0.0013,-0.0011,-0.0014,-0.0035,-0.0053,-0.0025,-0.0027,-0.0031,-0.0091,-0.0098,-0.0103,-0.0136,-0.0133,-0.0135,-0.0136,-0.0137,-0.0185,-0.0185,0,0,0,0,0,0,0.0032,0.0023,0.0022,0.0019,0.0016,-0.001,-0.0013,-0.0008,-0.0052,-0.0059,-0.003,-0.0032,-0.0094,-0.01,-0.0106,-0.0104,-0.0135,-0.0138,-0.0139,-0.0185,-0.0185,-0.0185,0,0,0,0,0,0,0.0032,0.0032,0.0023,0.002,0.0017,-0.0009,-0.0004,-0.0009,-0.0018,-0.0056,-0.0064,-0.0034,-0.0094,-0.0102,-0.012,-0.0107,-0.0139,-0.0141,-0.0186,-0.0185,-0.0185,-0.0105,0,0,0,0,0,0,0.0032,0.0033,0.0038,0.0021,0.0018,0.0023,-0.0003,-0.0009,-0.0018,-0.0022,-0.0062,-0.0069,-0.0095,-0.0116,-0.0123,-0.0111,-0.0143,-0.0186,-0.0185,-0.0185,-0.0107,-0.0101,-0.0096,0,0,0,0,0,0.0033,0.0051,0.0039,0.0038,0.0026,0.0024,0.002,-0.0002,-0.0018,-0.0014,-0.0042,-0.0068,-0.0118,-0.0117,-0.0125,-0.0115,-0.0186,-0.0186,-0.0185,-0.011,-0.0103,-0.0096,0,0,0,0,0,0,0.0052,0.0048,0.0034,0.0049,0.0038,0.0018,0.0021,0.0002,-0.0017,-0.0021,-0.0062,-0.0071,-0.0085,-0.0112,-0.011,-0.0129,-0.0158,-0.0159,-0.0098,-0.0092,-0.0086,-0.0083,-0.0145,0,0,0,0,0,0.0059,0.0072,0.0057,0.0067,0.0067,0.0042,0.0037,0.0023,0.0004,-0.0005,-0.0034,-0.0065,-0.0088,-0.0098,-0.0125,-0.013,-0.0177,-0.0132,-0.0126,-0.0121,-0.0124,-0.0179,-0.0178,-0.0183,-0.0183,-0.0183,0,0,0.0068,0.0068,0.0073,0.0072,0.0063,0.0073,0.0038,0.0039,0.0041,-0.001,-0.0015,-0.0048,-0.0087,-0.0094,-0.0102,-0.0113,-0.0144,-0.012,-0.0115,-0.0122,-0.0178,-0.0178,-0.0177,-0.0183,-0.0183,-0.0183,0,0,0.01,0.0095,0.0117,0.0117,0.011,0.0096,0.0098,0.008,0.0066,0.0058,0.002,-0.0005,-0.0036,-0.0061,-0.0077,-0.0059,-0.0116,-0.0067,-0.003,-0.0082,-0.0082,-0.0083,-0.014,-0.0146,-0.006,-0.006,-0.0059,0,0.0108,0.0137,0.0121,0.0144,0.0151,0.0112,0.0136,0.0119,0.0093,0.0085,0.0066,0.0008,-0.0021,-0.0039,-0.0029,-0.0046,-0.0089,-0.0047,-0.0074,-0.0076,-0.0078,-0.0137,-0.0145,-0.0056,-0.0056,-0.0057,-0.0057,0,0.016,0.018,0.0196,0.0212,0.0215,0.0231,0.0209,0.0202,0.0177,0.0152,0.0123,0.0075,0.0041,0.003,0.001,-0.0015,-0.0045,-0.0062,-0.0087,-0.0072,-0.0136,-0.0145,-0.005,-0.0051,-0.0053,-0.0054,0,0,0.0188,0.0225,0.023,0.0256,0.0256,0.0269,0.0271,0.0263,0.0266,0.0217,0.0208,0.0163,0.0123,0.01,0.0061,0.0018,-0.0026,-0.0018,-0.0023,-0.0069,-0.0148,-0.0151,-0.0163,-0.0047,-0.0048,-0.0049,-0.0186,0,0.0231,0.0295,0.0296,0.0351,0.0383,0.0359,0.0373,0.0356,0.0322,0.03,0.0226,0.0204,0.0153,0.0144,0.0089,-0.0,-0.0049,0.0012,-0.0163,-0.0168,-0.0167,-0.0173,-0.0053,-0.0194,-0.0196,-0.0198,-0.0199,0,0.0283,0.0321,0.0391,0.0437,0.0449,0.0472,0.0486,0.0497,0.0446,0.0414,0.0354,0.0289,0.0214,0.0174,0.0011,0.0051,-0.0039,-0.0114,-0.0122,-0.0161,-0.0189,-0.0215,-0.0218,-0.0216,-0.0215,-0.0214,-0.0212,0,0.0325,0.0385,0.0449,0.0468,0.0511,0.0536,0.0554,0.0534,0.0561,0.0488,0.0482,0.0354,0.0309,0.0164,0.0003,0.0008,-0.0186,-0.02,-0.0295,-0.0297,-0.0289,-0.0287,-0.0312,-0.0312,-0.0311,-0.0311,-0.0311,0,0.0378,0.043,0.048,0.0519,0.0606,0.0607,0.0679,0.0665,0.0658,0.0689,0.0557,0.053,0.0308,0.017,0.0012,-0.0179,-0.0185,-0.0298,-0.0333,-0.0252,-0.0244,-0.0296,-0.0293,-0.0316,-0.0315,-0.0314,-0.0313,0,0.0429,0.0458,0.0546,0.0606,0.0638,0.0707,0.0793,0.0836,0.0809,0.0837,0.0824,0.0664,0.0469,0.0238,-0.0011,-0.0145,-0.0336,-0.0397,-0.0302,-0.0328,-0.0419,-0.0409,-0.0525,-0.0526,-0.0527,-0.0528,-0.0528,0,0.0474,0.0525,0.0625,0.0689,0.0728,0.0826,0.0898,0.0917,0.0955,0.0921,0.093,0.0756,0.062,0.0259,0.0001,-0.0333,-0.0365,-0.0471,-0.0443,-0.0418,-0.0441,-0.043,-0.0419,-0.053,-0.053,-0.0531,-0.0531,0,0.0563,0.0594,0.0654,0.0783,0.0877,0.0994,0.1077,0.1117,0.1132,0.111,0.1024,0.0822,0.0591,0.0275,0.0009,-0.0222,-0.0413,-0.0483,-0.0482,-0.0456,-0.0426,-0.0445,-0.0434,-0.0535,-0.0534,-0.0534,-0.0534,0,0.0637,0.0692,0.0766,0.0878,0.0998,0.111,0.1154,0.1186,0.1229,0.1166,0.1133,0.0873,0.0709,0.0332,0.009,-0.0152,-0.0207,-0.0271,-0.0282,-0.0281,-0.0173,-0.0097,-0.0138,0,0,0,0,0,0.0704,0.076,0.086,0.0978,0.1083,0.1161,0.1252,0.1274,0.1277,0.124,0.1191,0.0975,0.0595,0.0413,0.0174,0.006,-0.0258,-0.023,-0.0338,-0.0555,-0.0551,-0.0466,0,0,0,0,0,0,0.0758,0.0844,0.0868,0.1024,0.1116,0.1256,0.132,0.1325,0.1288,0.1243,0.1039,0.0929,0.055,0.0742,0.0177,0.0098,-0.0001,-0.0416,-0.0421,-0.0557,-0.0553,-0.055,-0.0461,0,0,0,0,0]}]]